カタログに戻る

CZ-2C DEB

運用中PO
NORAD 40289·DEBRIS·🇨🇳 China

打ち上げ Oct 27, 2014 から Jiuquan Satellite Launch Center

Loading…

次のパス (今後24時間)

TLE

最新Source: Space-Track

元期: Sep 14, 2026, 01:01 UTC

1 40289U 14066D   26257.04246081  .00005663  00000-0  71203-3 0  9993
2 40289  98.4835 180.3441 0062106 223.3300 136.3018 14.81159264631420

AllMySatでCZ-2C DEBをリアルタイム追跡

Download on the App Store